| time (UTC) | temp F | wind direction | speed knots | gust knots | rain 1hr in | rain 24hr in | rain mn in | humidity % | barometer mb |
| 20260507112307 | 55 | 212 | 5.2 | 9.6 | 0.00 | 0.00 | 0.00 | 16 | 1016.3 |
| 20260507111744 | 55 | 268 | 5.2 | 10.4 | 0.00 | 0.00 | 0.00 | 18 | 1016.4 |
| 20260507110312 | 54 | 192 | 7.8 | 13.9 | 0.00 | 0.00 | 0.00 | 16 | 1016.2 |
| 20260507105306 | 55 | 271 | 5.2 | 18.2 | 0.00 | 0.00 | 0.00 | 16 | 1016.0 |
| 20260507104303 | 54 | 270 | 4.3 | 13.0 | 0.00 | 0.00 | 0.00 | 17 | 1016.2 |
| 20260507103305 | 53 | 290 | 5.2 | 9.6 | 0.00 | 0.00 | 0.00 | 18 | 1016.2 |
| 20260507102307 | 53 | 327 | 8.7 | 13.0 | 0.00 | 0.00 | 0.00 | 22 | 1016.0 |
| 20260507101303 | 54 | 248 | 4.3 | 12.2 | 0.00 | 0.00 | 0.00 | 21 | 1016.0 |
| 20260507100741 | 54 | 289 | 6.1 | 14.8 | 0.00 | 0.00 | 0.00 | 21 | 1015.9 |
| 20260507095306 | 51 | 300 | 6.1 | 13.0 | 0.00 | 0.00 | 0.00 | 23 | 1015.9 |
| 20260507094303 | 52 | 226 | 2.6 | 7.8 | 0.00 | 0.00 | 0.00 | 23 | 1015.9 |
| 20260507093301 | 53 | 300 | 4.3 | 10.4 | 0.00 | 0.00 | 0.00 | 20 | 1015.9 |
| 20260507092302 | 52 | 316 | 6.1 | 12.2 | 0.00 | 0.00 | 0.00 | 24 | 1015.9 |
| 20260507091301 | 51 | 249 | 5.2 | 10.4 | 0.00 | 0.00 | 0.00 | 24 | 1016.0 |
| 20260507090301 | 50 | 276 | 7.0 | 13.0 | 0.00 | 0.00 | 0.00 | 25 | 1016.0 |
| 20260507085306 | 50 | 357 | 4.3 | 10.4 | 0.00 | 0.00 | 0.00 | 25 | 1015.9 |
| 20260507084302 | 50 | 300 | 7.0 | 10.4 | 0.00 | 0.00 | 0.00 | 26 | 1015.9 |
| 20260507083734 | 50 | 322 | 7.0 | 11.3 | 0.00 | 0.00 | 0.00 | 30 | 1015.8 |
| 20260507082746 | 50 | 289 | 6.1 | 11.3 | 0.00 | 0.00 | 0.00 | 30 | 1015.7 |
| 20260507081303 | 49 | 343 | 2.6 | 7.0 | 0.00 | 0.00 | 0.00 | 30 | 1015.7 |
| 20260507080301 | 49 | 305 | 4.3 | 8.7 | 0.00 | 0.00 | 0.00 | 32 | 1015.6 |
| 20260507075301 | 49 | 210 | 6.1 | 10.4 | 0.00 | 0.00 | 0.00 | 33 | 1015.4 |
| 20260507074751 | 49 | 339 | 3.5 | 8.7 | 0.00 | 0.00 | 0.00 | 36 | 1015.5 |
| 20260507073302 | 48 | 339 | 3.5 | 7.8 | 0.00 | 0.00 | 0.00 | 38 | 1015.3 |
| 20260507072758 | 47 | 21 | 2.6 | 6.1 | 0.00 | 0.00 | 0.00 | 39 | 1015.3 |
| 20260507071303 | 47 | 345 | 3.5 | 8.7 | 0.00 | 0.00 | 0.00 | 40 | 1015.4 |
| 20260507070301 | 46 | 338 | 4.3 | 9.6 | 0.00 | 0.00 | 0.00 | 42 | 1015.3 |
| 20260507065305 | 45 | 337 | 2.6 | 5.2 | 0.00 | 0.00 | 0.00 | 48 | 1015.2 |
| 20260507064302 | 44 | 310 | 3.5 | 7.0 | 0.00 | 0.00 | 0.00 | 48 | 1015.3 |
| 20260507063302 | 41 | 328 | 2.6 | 4.3 | 0.00 | 0.00 | 0.00 | 54 | 1015.2 |
| 20260507062301 | 40 | 314 | 0.9 | 3.5 | 0.00 | 0.00 | 0.00 | 55 | 1015.1 |
| 20260507061302 | 39 | 322 | 2.6 | 6.1 | 0.00 | 0.00 | 0.00 | 57 | 1015.2 |
| 20260507060745 | 38 | 354 | 1.7 | 5.2 | 0.00 | 0.00 | 0.00 | 59 | 1015.1 |
| 20260507055301 | 37 | 327 | 2.6 | 3.5 | 0.00 | 0.00 | 0.00 | 60 | 1015.1 |
| 20260507054743 | 37 | 310 | 2.6 | 4.3 | 0.00 | 0.00 | 0.00 | 60 | 1014.9 |
| 20260507053301 | 36 | 293 | 3.5 | 5.2 | 0.00 | 0.00 | 0.00 | 61 | 1014.9 |
| 20260507052305 | 35 | 300 | 4.3 | 7.0 | 0.00 | 0.00 | 0.00 | 63 | 1014.9 |
| 20260507051301 | 35 | 300 | 5.2 | 8.7 | 0.00 | 0.00 | 0.00 | 63 | 1014.8 |
| 20260507050301 | 34 | 315 | 7.0 | 8.7 | 0.00 | 0.00 | 0.00 | 64 | 1014.8 |
| 20260507045301 | 33 | 321 | 6.1 | 9.6 | 0.00 | 0.00 | 0.00 | 64 | 1014.8 |
| 20260507044301 | 33 | 305 | 4.3 | 7.0 | 0.00 | 0.00 | 0.00 | 65 | 1014.8 |
| 20260507043302 | 32 | 329 | 4.3 | 7.8 | 0.00 | 0.00 | 0.00 | 66 | 1014.7 |
| 20260507042301 | 31 | 310 | 4.3 | 7.8 | 0.00 | 0.00 | 0.00 | 68 | 1014.6 |
| 20260507041301 | 31 | 300 | 4.3 | 8.7 | 0.00 | 0.00 | 0.00 | 69 | 1014.6 |
| 20260507040738 | 30 | 295 | 4.3 | 7.0 | 0.00 | 0.00 | 0.00 | 71 | 1014.5 |
| 20260507035301 | 29 | 300 | 5.2 | 8.7 | 0.00 | 0.00 | 0.00 | 73 | 1014.4 |
| 20260507034301 | 28 | 291 | 3.5 | 7.0 | 0.00 | 0.00 | 0.00 | 75 | 1014.4 |
| 20260507033738 | 27 | 300 | 3.5 | 5.2 | 0.00 | 0.00 | 0.00 | 76 | 1014.3 |
| 20260507032301 | 27 | 279 | 2.6 | 4.3 | 0.00 | 0.00 | 0.00 | 76 | 1014.2 |
| 20260507031301 | 27 | 300 | 2.6 | 4.3 | 0.00 | 0.00 | 0.00 | 76 | 1014.2 |
| 20260507030302 | 27 | 281 | 1.7 | 3.5 | 0.00 | 0.00 | 0.00 | 76 | 1014.1 |
| 20260507025300 | 27 | 287 | 3.5 | 7.0 | 0.00 | 0.00 | 0.00 | 75 | 1014.2 |
| 20260507024300 | 28 | 336 | 3.5 | 7.0 | 0.00 | 0.00 | 0.00 | 75 | 1014.2 |
| 20260507023301 | 28 | 287 | 2.6 | 3.5 | 0.00 | 0.00 | 0.00 | 75 | 1014.1 |
| 20260507022306 | 28 | 329 | 0.0 | 1.7 | 0.00 | 0.00 | 0.00 | 74 | 1014.1 |
| 20260507021301 | 28 | 329 | 1.7 | 3.5 | 0.00 | 0.00 | 0.00 | 73 | 1014.0 |
| 20260507020301 | 28 | 289 | 3.5 | 7.0 | 0.00 | 0.00 | 0.00 | 73 | 1013.8 |
| 20260507015300 | 28 | 300 | 3.5 | 5.2 | 0.00 | 0.00 | 0.00 | 74 | 1013.9 |
| 20260507014300 | 28 | 291 | 3.5 | 5.2 | 0.00 | 0.00 | 0.00 | 74 | 1013.9 |
| 20260507013301 | 28 | 288 | 3.5 | 6.1 | 0.00 | 0.00 | 0.00 | 75 | 1013.8 |
| 20260507012301 | 28 | 300 | 2.6 | 3.5 | 0.00 | 0.00 | 0.00 | 74 | 1013.7 |
| 20260507011300 | 28 | 305 | 1.7 | 4.3 | 0.00 | 0.00 | 0.00 | 74 | 1013.7 |
| 20260507010748 | 29 | 300 | 0.0 | 0.9 | 0.00 | 0.00 | 0.00 | 73 | 1013.4 |
| 20260507005300 | 29 | 300 | 0.0 | 0.9 | 0.00 | 0.00 | 0.00 | 72 | 1013.4 |
| 20260507004300 | 30 | 300 | 0.0 | 1.7 | 0.00 | 0.00 | 0.00 | 70 | 1013.3 |
| 20260507003300 | 30 | 300 | 0.9 | 1.7 | 0.00 | 0.00 | 0.00 | 70 | 1013.2 |
| 20260507002301 | 31 | 300 | 1.7 | 2.6 | 0.00 | 0.00 | 0.00 | 70 | 1013.2 |
| 20260507001300 | 31 | 300 | 1.7 | 2.6 | 0.00 | 0.00 | 0.00 | 70 | 1013.0 |
| 20260507000300 | 32 | 300 | 1.7 | 2.6 | 0.00 | 0.00 | 0.00 | 68 | 1012.9 |
| 20260506235301 | 33 | 89 | 0.9 | 2.6 | 0.00 | 0.00 | 0.00 | 67 | 1012.9 |
| 20260506234301 | 33 | 89 | 1.7 | 4.3 | 0.00 | 0.00 | 0.00 | 65 | 1012.8 |
| 20260506233300 | 34 | 314 | 1.7 | 2.6 | 0.00 | 0.00 | 0.00 | 64 | 1012.8 |
| 20260506233218 | 34 | 280 | 3.5 | 7.0 | 0.00 | 0.00 | 0.00 | 64 | 1012.6 |
| 20260506231301 | 35 | 225 | 0.9 | 2.6 | 0.00 | 0.00 | 0.00 | 66 | 1012.5 |
| 20260506230301 | 35 | 327 | 1.7 | 3.5 | 0.00 | 0.00 | 0.00 | 61 | 1012.6 |
| 20260506225305 | 35 | 305 | 3.5 | 4.3 | 0.00 | 0.00 | 0.00 | 61 | 1012.5 |
| 20260506224301 | 36 | 300 | 3.5 | 4.3 | 0.00 | 0.00 | 0.00 | 63 | 1012.5 |
| 20260506223301 | 37 | 305 | 2.6 | 4.3 | 0.00 | 0.00 | 0.00 | 62 | 1012.5 |
| 20260506222301 | 37 | 253 | 0.9 | 1.7 | 0.00 | 0.00 | 0.00 | 61 | 1012.4 |
| 20260506221301 | 37 | 241 | 1.7 | 4.3 | 0.00 | 0.00 | 0.00 | 62 | 1012.5 |
| 20260506220303 | 38 | 259 | 1.7 | 3.5 | 0.00 | 0.00 | 0.00 | 61 | 1012.4 |
| 20260506220223 | 38 | 278 | 0.9 | 2.6 | 0.00 | 0.00 | 0.00 | 60 | 1012.3 |
| 20260506214302 | 38 | 270 | 1.7 | 3.5 | 0.00 | 0.00 | 0.00 | 59 | 1012.4 |
| 20260506213301 | 39 | 121 | 1.7 | 5.2 | 0.00 | 0.00 | 0.00 | 59 | 1012.0 |
| 20260506212752 | 39 | 338 | 1.7 | 4.3 | 0.00 | 0.00 | 0.00 | 55 | 1011.9 |
| 20260506211301 | 40 | 305 | 4.3 | 8.7 | 0.00 | 0.00 | 0.00 | 57 | 1011.8 |
| 20260506210301 | 40 | 15 | 1.7 | 4.3 | 0.00 | 0.00 | 0.00 | 54 | 1011.9 |
| 20260506205258 | 40 | 342 | 1.7 | 2.6 | 0.00 | 0.00 | 0.00 | 55 | 1011.9 |
| 20260506204258 | 41 | 342 | 0.9 | 2.6 | 0.00 | 0.00 | 0.00 | 52 | 1011.8 |
| 20260506203300 | 42 | 356 | 0.0 | 1.7 | 0.00 | 0.01 | 0.00 | 48 | 1011.8 |
| 20260506202259 | 42 | 356 | 0.9 | 2.6 | 0.00 | 0.01 | 0.00 | 48 | 1011.8 |
| 20260506201259 | 42 | 21 | 1.7 | 4.3 | 0.00 | 0.01 | 0.00 | 48 | 1011.9 |
| 20260506200301 | 43 | 358 | 2.6 | 7.0 | 0.00 | 0.01 | 0.00 | 48 | 1011.7 |
| 20260506195300 | 44 | 327 | 0.9 | 3.5 | 0.00 | 0.01 | 0.00 | 47 | 1011.5 |
| 20260506194257 | 45 | 239 | 0.9 | 1.7 | 0.00 | 0.01 | 0.00 | 45 | 1011.6 |
| 20260506193739 | 46 | 239 | 0.9 | 1.7 | 0.00 | 0.01 | 0.00 | 40 | 1011.4 |
| 20260506192257 | 46 | 239 | 1.7 | 3.5 | 0.00 | 0.01 | 0.00 | 39 | 1011.2 |
| 20260506191257 | 47 | 162 | 1.7 | 3.5 | 0.00 | 0.01 | 0.00 | 39 | 1011.2 |
| 20260506190257 | 47 | 226 | 2.6 | 8.7 | 0.00 | 0.01 | 0.00 | 35 | 1011.3 |
| 20260506185255 | 47 | 168 | 4.3 | 12.2 | 0.00 | 0.01 | 0.00 | 34 | 1011.2 |
| 20260506184255 | 47 | 283 | 7.8 | 19.1 | 0.00 | 0.01 | 0.00 | 34 | 1011.5 |
| 20260506183254 | 48 | 251 | 1.7 | 4.3 | 0.00 | 0.01 | 0.00 | 41 | 1011.2 |
| 20260506182253 | 48 | 305 | 0.9 | 2.6 | 0.00 | 0.01 | 0.00 | 38 | 1011.0 |
| 20260506181253 | 49 | 45 | 0.9 | 2.6 | 0.00 | 0.01 | 0.00 | 38 | 1010.9 |
| 20260506180250 | 49 | 341 | 0.9 | 6.1 | 0.00 | 0.01 | 0.00 | 34 | 1010.9 |
| 20260506175250 | 49 | 285 | 2.6 | 6.1 | 0.00 | 0.01 | 0.00 | 34 | 1010.9 |
| 20260506174726 | 49 | 295 | 4.3 | 7.0 | 0.00 | 0.01 | 0.00 | 33 | 1010.9 |
| 20260506173250 | 49 | 263 | 1.7 | 5.2 | 0.00 | 0.01 | 0.00 | 32 | 1010.7 |
| 20260506172250 | 50 | 241 | 3.5 | 7.8 | 0.00 | 0.01 | 0.00 | 31 | 1010.6 |
| 20260506171722 | 50 | 258 | 3.5 | 9.6 | 0.00 | 0.01 | 0.00 | 30 | 1010.5 |
| 20260506171230 | 50 | 245 | 1.7 | 5.2 | 0.00 | 0.01 | 0.00 | 31 | 1010.5 |
| 20260506165242 | 50 | 204 | 4.3 | 11.3 | 0.00 | 0.01 | 0.00 | 31 | 1010.5 |
| 20260506164726 | 50 | 224 | 3.5 | 9.6 | 0.00 | 0.01 | 0.00 | 30 | 1010.6 |
| 20260506163243 | 50 | 206 | 3.5 | 7.8 | 0.00 | 0.01 | 0.00 | 30 | 1010.6 |
| 20260506162243 | 50 | 238 | 4.3 | 8.7 | 0.00 | 0.01 | 0.00 | 29 | 1010.6 |
| 20260506161242 | 50 | 277 | 6.1 | 13.0 | 0.00 | 0.01 | 0.00 | 28 | 1010.5 |
| 20260506160244 | 51 | 267 | 7.0 | 13.9 | 0.00 | 0.01 | 0.00 | 28 | 1010.5 |
| 20260506155242 | 51 | 134 | 3.5 | 8.7 | 0.00 | 0.01 | 0.00 | 29 | 1010.3 |
| 20260506154242 | 51 | 189 | 3.5 | 9.6 | 0.00 | 0.01 | 0.00 | 27 | 1010.4 |
| 20260506153243 | 51 | 244 | 2.6 | 7.8 | 0.00 | 0.01 | 0.00 | 27 | 1010.6 |
| 20260506152236 | 51 | 206 | 4.3 | 9.6 | 0.00 | 0.01 | 0.00 | 27 | 1010.6 |
| 20260506152200 | 51 | 242 | 2.6 | 11.3 | 0.00 | 0.01 | 0.00 | 27 | 1010.6 |
| 20260506150713 | 51 | 300 | 3.5 | 8.7 | 0.00 | 0.01 | 0.00 | 28 | 1010.7 |
| 20260506145236 | 51 | 214 | 1.7 | 3.5 | 0.00 | 0.01 | 0.00 | 32 | 1010.6 |
| 20260506144236 | 51 | 69 | 2.6 | 5.2 | 0.00 | 0.01 | 0.00 | 30 | 1010.6 |
| 20260506143717 | 52 | 58 | 3.5 | 7.0 | 0.00 | 0.01 | 0.00 | 29 | 1010.8 |
| 20260506142238 | 51 | 46 | 3.5 | 8.7 | 0.00 | 0.01 | 0.00 | 32 | 1010.8 |
| 20260506141236 | 52 | 144 | 5.2 | 9.6 | 0.00 | 0.01 | 0.00 | 31 | 1010.9 |
| 20260506140234 | 52 | 110 | 4.3 | 9.6 | 0.00 | 0.01 | 0.00 | 32 | 1010.9 |
| 20260506135709 | 51 | 108 | 3.5 | 8.7 | 0.00 | 0.01 | 0.00 | 33 | 1011.0 |
| 20260506134234 | 50 | 143 | 2.6 | 7.8 | 0.00 | 0.01 | 0.00 | 32 | 1011.1 |
| 20260506133234 | 51 | 124 | 3.5 | 6.1 | 0.00 | 0.01 | 0.00 | 37 | 1011.1 |
| 20260506132235 | 51 | 102 | 4.3 | 8.7 | 0.00 | 0.01 | 0.00 | 34 | 1011.3 |
| 20260506131233 | 53 | 224 | 4.3 | 10.4 | 0.00 | 0.01 | 0.00 | 28 | 1011.3 |
| 20260506130235 | 53 | 125 | 2.6 | 6.1 | 0.00 | 0.01 | 0.00 | 29 | 1011.3 |
| 20260506125234 | 53 | 108 | 5.2 | 13.0 | 0.00 | 0.01 | 0.00 | 30 | 1011.3 |
| 20260506124233 | 53 | 74 | 7.8 | 14.8 | 0.00 | 0.01 | 0.00 | 29 | 1011.2 |
| 20260506123229 | 53 | 71 | 7.0 | 14.8 | 0.00 | 0.01 | 0.00 | 35 | 1011.3 |
| 20260506122231 | 54 | 139 | 5.2 | 12.2 | 0.00 | 0.01 | 0.00 | 32 | 1011.6 |
| 20260506121229 | 52 | 90 | 5.2 | 8.7 | 0.00 | 0.01 | 0.00 | 33 | 1011.7 |
| 20260506120230 | 49 | 79 | 2.6 | 7.0 | 0.00 | 0.01 | 0.00 | 37 | 1011.9 |
| 20260506115229 | 48 | 58 | 2.6 | 6.1 | 0.00 | 0.01 | 0.00 | 35 | 1011.9 |
| 20260506114230 | 48 | 71 | 4.3 | 7.0 | 0.00 | 0.01 | 0.00 | 36 | 1011.9 |